When you browse on this site, cookies collect data to enhance your experience and personalize the content and advertising you see.
Visit our Privacy Policy to learn more. By continuing to use the site, you agree to this use of cookies and data.
  • In Hungary
  • List of Countries
  • For 7 days
  • Water Temperature
  • Weather Map
  • News
  • Weather Widgets
  • user-avatar
    Login

    Hourly Weather Wittmund

    Today, 9 December, Monday

    Time Temperature Precipitation Wind Pressure Humidity
    00:00 +3°C° 0.1 mm 9 mps 743 mmHg 83%
    01:00 +4°C° 0 mm 8 mps 743 mmHg 85%
    02:00 +4°C° 0.1 mm 8 mps 743 mmHg 85%
    03:00 +3°C° 0.1 mm 9 mps 743 mmHg 84%
    04:00 +3°C° 0.1 mm 9 mps 742 mmHg 84%
    05:00 +2°C° 0 mm 9 mps 742 mmHg 85%
    06:00 +2°C° 0 mm 8 mps 742 mmHg 87%
    07:00 +2°C° 0 mm 8 mps 742 mmHg 88%
    08:00 +3°C° 0 mm 7 mps 743 mmHg 88%
    09:00 +4°C° 0 mm 7 mps 743 mmHg 88%
    10:00 +4°C° 0 mm 6 mps 743 mmHg 88%
    11:00 +4°C° 0 mm 6 mps 744 mmHg 87%
    12:00 +4°C° 0 mm 6 mps 744 mmHg 86%
    13:00 +6°C° 0 mm 5 mps 745 mmHg 86%
    14:00 +5°C° 0.3 mm 6 mps 746 mmHg 81%
    15:00 +5°C° 0.3 mm 8 mps 748 mmHg 77%
    16:00 +5°C° 0.3 mm 9 mps 749 mmHg 72%
    17:00 +5°C° 0.1 mm 9 mps 751 mmHg 71%
    18:00 +3°C° 0.1 mm 10 mps 752 mmHg 70%
    19:00 +3°C° 0.1 mm 11 mps 754 mmHg 69%
    20:00 +2°C° 0.1 mm 10 mps 755 mmHg 70%
    21:00 +2°C° 0.1 mm 10 mps 756 mmHg 70%
    22:00 +2°C° 0.1 mm 9 mps 757 mmHg 71%
    23:00 +2°C° 0.1 mm 9 mps 758 mmHg 71%

    Tomorrow, 10 December, Tuesday

    Time Temperature Precipitation Wind Pressure Humidity
    00:00 +2°C° 0.1 mm 9 mps 759 mmHg 71%
    01:00 +2°C° 0.1 mm 9 mps 761 mmHg 71%
    02:00 +2°C° 0.1 mm 8 mps 761 mmHg 72%
    03:00 +2°C° 0.1 mm 8 mps 762 mmHg 73%
    04:00 +2°C° 0.1 mm 7 mps 763 mmHg 74%
    05:00 +2°C° 0 mm 6 mps 764 mmHg 76%
    06:00 +1°C° 0 mm 5 mps 765 mmHg 77%
    07:00 +1°C° 0 mm 4 mps 765 mmHg 78%
    08:00 +1°C° 0 mm 4 mps 766 mmHg 79%
    09:00 +1°C° 0 mm 4 mps 766 mmHg 79%
    10:00 +1°C° 0 mm 4 mps 766 mmHg 79%
    11:00 +2°C° 0 mm 5 mps 766 mmHg 78%
    12:00 +2°C° 0 mm 5 mps 766 mmHg 76%
    13:00 +3°C° 0 mm 6 mps 765 mmHg 75%
    14:00 +2°C° 0 mm 6 mps 765 mmHg 77%
    15:00 +2°C° 0 mm 7 mps 764 mmHg 79%
    16:00 +2°C° 0 mm 7 mps 763 mmHg 81%
    17:00 0°C° 0 mm 8 mps 762 mmHg 81%
    18:00 0°C° 0 mm 9 mps 762 mmHg 81%
    19:00 0°C° 0 mm 10 mps 761 mmHg 80%
    20:00 0°C° 0 mm 10 mps 760 mmHg 78%
    21:00 -1°C° 0 mm 11 mps 759 mmHg 75%
    22:00 +1°C° 0 mm 11 mps 758 mmHg 72%
    23:00 +1°C° 0.1 mm 11 mps 757 mmHg 71%

    Day after tomorrow, 11 December, Wednesday

    Time Temperature Precipitation Wind Pressure Humidity
    00:00 0°C° 0.1 mm 12 mps 756 mmHg 69%
    01:00 0°C° 0.1 mm 12 mps 755 mmHg 68%
    02:00 0°C° 0.1 mm 12 mps 755 mmHg 70%
    03:00 +1°C° 0.1 mm 11 mps 754 mmHg 72%
    04:00 +1°C° 0.1 mm 11 mps 754 mmHg 74%
    05:00 +2°C° 0.1 mm 10 mps 754 mmHg 78%
    06:00 +2°C° 0.1 mm 9 mps 754 mmHg 82%
    07:00 +2°C° 0.1 mm 8 mps 753 mmHg 85%
    08:00 +3°C° 0.3 mm 7 mps 753 mmHg 88%
    09:00 +3°C° 0.3 mm 6 mps 753 mmHg 90%
    10:00 +3°C° 0.3 mm 5 mps 753 mmHg 93%
    11:00 +4°C° 0.1 mm 4 mps 753 mmHg 93%
    12:00 +4°C° 0.1 mm 4 mps 753 mmHg 94%
    13:00 +4°C° 0.1 mm 4 mps 752 mmHg 94%
    14:00 +4°C° 0.3 mm 3 mps 752 mmHg 94%
    15:00 +4°C° 0.3 mm 3 mps 751 mmHg 94%
    16:00 +4°C° 0.3 mm 3 mps 751 mmHg 95%
    17:00 +4°C° 0.1 mm 3 mps 751 mmHg 94%
    18:00 +4°C° 0.1 mm 4 mps 751 mmHg 94%
    19:00 +4°C° 0.1 mm 4 mps 751 mmHg 94%
    20:00 +3°C° 0 mm 4 mps 751 mmHg 94%
    21:00 +3°C° 0 mm 4 mps 751 mmHg 94%
    22:00 +1°C° 0 mm 4 mps 751 mmHg 95%
    23:00 +1°C° 0 mm 4 mps 751 mmHg 94%

    12 December, Thursday

    Time Temperature Precipitation Wind Pressure Humidity
    00:00 +1°C° 0 mm 4 mps 751 mmHg 94%
    01:00 0°C° 0 mm 4 mps 750 mmHg 93%
    02:00 0°C° 0 mm 4 mps 750 mmHg 94%
    03:00 0°C° 0 mm 5 mps 750 mmHg 94%
    04:00 0°C° 0 mm 5 mps 749 mmHg 95%
    05:00 0°C° 0 mm 5 mps 749 mmHg 94%
    06:00 0°C° 0 mm 5 mps 749 mmHg 94%
    07:00 0°C° 0 mm 5 mps 749 mmHg 93%
    08:00 +1°C° 0 mm 6 mps 749 mmHg 92%
    09:00 +1°C° 0 mm 6 mps 749 mmHg 92%
    10:00 +1°C° 0 mm 6 mps 748 mmHg 91%
    11:00 +2°C° 0 mm 6 mps 748 mmHg 89%
    12:00 +2°C° 0 mm 5 mps 748 mmHg 87%
    13:00 +3°C° 0 mm 5 mps 747 mmHg 85%
    14:00 +2°C° 0 mm 6 mps 747 mmHg 84%
    15:00 +2°C° 0 mm 6 mps 746 mmHg 83%
    16:00 +2°C° 0 mm 7 mps 745 mmHg 82%
    17:00 0°C° 0 mm 8 mps 744 mmHg 82%
    18:00 0°C° 0 mm 9 mps 743 mmHg 82%
    19:00 0°C° 0 mm 10 mps 742 mmHg 82%
    20:00 -1°C° 0.1 mm 11 mps 739 mmHg 83%
    21:00 -1°C° 0.1 mm 12 mps 737 mmHg 85%
    22:00 -1°C° 0.1 mm 14 mps 735 mmHg 86%
    23:00 0°C° 1.4 mm 13 mps 733 mmHg 88%

    13 December, Friday

    Time Temperature Precipitation Wind Pressure Humidity
    00:00 0°C° 1.4 mm 13 mps 731 mmHg 90%
    01:00 +1°C° 1.4 mm 13 mps 729 mmHg 92%
    02:00 +2°C° 1.1 mm 11 mps 728 mmHg 90%
    03:00 +1°C° 1.1 mm 8 mps 727 mmHg 89%
    04:00 +2°C° 1.1 mm 6 mps 726 mmHg 87%
    05:00 +2°C° 0 mm 7 mps 726 mmHg 86%
    06:00 0°C° 0 mm 7 mps 726 mmHg 85%
    07:00 0°C° 0 mm 8 mps 725 mmHg 84%
    08:00 0°C° 0 mm 8 mps 726 mmHg 84%
    09:00 0°C° 0 mm 8 mps 726 mmHg 84%
    10:00 0°C° 0 mm 8 mps 726 mmHg 84%
    11:00 +1°C° 0 mm 8 mps 726 mmHg 82%
    12:00 +1°C° 0 mm 8 mps 725 mmHg 80%
    13:00 +1°C° 0 mm 8 mps 725 mmHg 78%
    14:00 +2°C° 0.9 mm 7 mps 724 mmHg 84%
    15:00 +2°C° 0.9 mm 6 mps 724 mmHg 89%
    16:00 +1°C° 0.9 mm 6 mps 724 mmHg 95%
    17:00 +2°C° 0.2 mm 6 mps 724 mmHg 93%
    18:00 +2°C° 0.2 mm 6 mps 725 mmHg 90%
    19:00 +3°C° 0.2 mm 6 mps 725 mmHg 88%
    20:00 +3°C° 0.2 mm 7 mps 726 mmHg 89%
    21:00 +3°C° 0.2 mm 7 mps 727 mmHg 90%
    22:00 +3°C° 0.2 mm 7 mps 728 mmHg 91%
    23:00 +2°C° 0.9 mm 9 mps 729 mmHg 86%

    14 December, Saturday

    Time Temperature Precipitation Wind Pressure Humidity
    00:00 +3°C° 0.9 mm 11 mps 730 mmHg 81%
    01:00 +3°C° 0.9 mm 12 mps 730 mmHg 76%
    02:00 +2°C° 0.1 mm 12 mps 731 mmHg 76%
    03:00 +2°C° 0.1 mm 11 mps 731 mmHg 76%
    04:00 +2°C° 0.1 mm 11 mps 732 mmHg 75%
    05:00 +2°C° 0.2 mm 11 mps 732 mmHg 76%
    06:00 +2°C° 0.2 mm 10 mps 733 mmHg 78%
    07:00 +1°C° 0.2 mm 10 mps 733 mmHg 79%
    08:00 +2°C° 0.3 mm 10 mps 734 mmHg 79%
    09:00 +2°C° 0.3 mm 10 mps 735 mmHg 79%
    10:00 +2°C° 0.3 mm 10 mps 735 mmHg 79%
    11:00 +2°C° 0.3 mm 10 mps 736 mmHg 77%
    12:00 +3°C° 0.3 mm 10 mps 737 mmHg 76%
    13:00 +3°C° 0.3 mm 10 mps 737 mmHg 74%
    14:00 +3°C° 0.4 mm 10 mps 738 mmHg 76%
    15:00 +2°C° 0.4 mm 10 mps 739 mmHg 77%
    16:00 +2°C° 0.4 mm 10 mps 740 mmHg 79%
    17:00 +2°C° 0.3 mm 10 mps 740 mmHg 78%
    18:00 +2°C° 0.3 mm 10 mps 741 mmHg 77%
    19:00 +1°C° 0.3 mm 10 mps 741 mmHg 77%
    20:00 +1°C° 0.1 mm 10 mps 742 mmHg 77%
    21:00 +1°C° 0.1 mm 10 mps 743 mmHg 78%
    22:00 +1°C° 0.1 mm 9 mps 743 mmHg 78%
    23:00 +1°C° 0.2 mm 10 mps 744 mmHg 78%
    Show more